カタログに戻る

FENGYUN 1C DEB

運用中SSO
NORAD 30210·DEBRIS·🇨🇳 China

打ち上げ May 10, 1999 から Taiyuan Satellite Launch Center

Loading…

次のパス (今後24時間)

TLE

最新Source: Space-Track

元期: Sep 14, 2026, 09:43 UTC

1 30210U 99025VT  26257.40539734  .00000503  00000-0  31349-3 0  9999
2 30210  99.1611 316.8396 0056862  88.4915 334.5635 14.08755198  6387

AllMySatでFENGYUN 1C DEBをリアルタイム追跡

Download on the App Store